カタログに戻る

SL-8 DEB

運用中LEO
NORAD 21234·DEBRIS·🇷🇺 Russia

打ち上げ Feb 12, 1991 から Plesetsk Cosmodrome

Loading…

次のパス (今後24時間)

TLE

最新Source: Space-Track

元期: Sep 14, 2026, 08:14 UTC

1 21234U 91009CT  26257.34339750 -.00000009  00000-0  42073-4 0  9997
2 21234  74.0114  26.1820 0127402 110.8062 278.5801 12.32929608597637

AllMySatでSL-8 DEBをリアルタイム追跡

Download on the App Store